Location: ????????
(55.5667°N, 37.5833°E)
Time: 22:48:07
(UTC+00:00)

Terra - Pass Details

Date: 14 April 2026
Orbit: 688 x 691 km, 97.9° (Epoch: 13 May)

Event Time Altitude Azimuth Distance (km) Brightness Sun altitude
Exits shadow 19:14:39 - 215° (SW) 3,092 5.0 -19.0°
Rises 19:14:46 0° 216° (SW) 3,054 4.9 -19.0°
Reaches altitude 10° 19:17:56 10° 239° (WSW) 2,143 4.4 -19.2°
Maximum altitude 19:20:39 15° 275° (W) 1,820 4.4 -19.5°
Drops below altitude 10° 19:23:22 10° 310° (NW) 2,152 5.4 -19.7°
Sets 19:26:35 0° 334° (NNW) 3,074 6.7 -19.9°
